Retour au catalogue

DELTA 1 DEB

ActifSSO
NORAD 17764·DEBRIS·🇺🇸 United States

Lancé Mar 5, 1978 depuis Vandenberg Space Force Base

Loading…

Prochains Passages (prochaines 24 heures)

TLE

FraisSource: Space-Track

Époque: Sep 13, 2026, 07:45 UTC

1 17764U 78026GW  26256.32336897  .00000109  00000-0  83518-4 0  9999
2 17764  98.9894 291.4364 0046088 329.8911  88.5987 14.12155926132526

Suivez DELTA 1 DEB en temps réel avec AllMySat

Download on the App Store